Weather in Kay

Russia / Kirov Oblast     59°57′37″N   52°58′33″E
temp.,
°C
wind,
m/s
gust,
m/s
humid.,
%
clouds,
%
prec.,
mm/h
press.,
hPa
HPBL,
m
17 september, fri
fri1700:00+5nnw41094100 0.0 1008600
03:00+5nnw4895100 0.1 1009516
06:00+5n3794100 0.0 1009739
09:00+5n3691100 0.1 1010678
12:00+7n3669100 0.1 1010948
15:00+7n2669100 0.2 1011580
18:00+5n4881100 0.2 1012747
21:00+4n4876100 0.2 1013705
18 september, sat
sat1800:00+4nnw3883100 0.1 1014594
03:00+3n498999 0.2 1014777
06:00+3nnw5986100 0.1 1015822
09:00+4nnw5978100 0.3 10151121
12:00+5nnw61073100 0.4 10151299
15:00+5nnw61174100 0.7 10161259
18:00+4nw61271100 0.1 10161232
21:00+3nnw6127886 0.1 10171196
19 september, sun
sun1900:00+2nnw5118299 0.1 1017969
03:00+3nnw51075100 0.1 10181316
06:00+2nnw51076100 0.0 10191241
09:00+3nnw5964100 0.0 10201246
12:00+4nnw4868100 0.0 10221319
15:00+4nnw5863100 0.0 10221338
18:00+3nw3874100 0.0 1023657
21:00+3nnw3880100 0.0 1024479
20 september, mon
mon2000:00+2nnw3880100 0.0 1025543
03:00+2n3780100 0.0 1027450
06:00+1n2782100 0.0 1028392
09:00+4n3461100 0.0 10291020
12:00+5nne3455100 0.0 10301407
15:00+5nne2360100 0.0 1031930
18:00+3ne237576 0.0 103199
21:00−1e11925 0.0 103210
21 september, tue
tue2100:00−1e11935 0.0 103310
03:00−2ne01945 0.0 103210
06:00−1ne11935 0.0 103215
09:00+5ene12645 0.0 1031562
12:00+8ene22535 0.0 1029918
15:00+9ene23525 0.0 1027919
18:00+3ene22805 0.0 102711
21:00+1e22915 0.0 102711